Vertical_Velocity
-1 -1 -2 -1 -1 -1 -0 -0 -0 -0 -0 -0 -0 -0 -1 -1 -1 -1 -1 -1 -1 -1 -1 -2 -2 -2 -1 -1 -1 -0 -0 -0 -0 -0 -0 -0 -0 -0 0 0 1 1 1 1 0 0 -0 -0 -1 -1 -1 -1 -1 -1 -1 -2 -2 -1 -1 -0 0 0 -0 -0 0 0 0 0 0
-1 -1 -1 -1 -0 -0 -0 -0 -0 -0 0 0 0 0 -0 -1 -1 -1 -1 -1 -1 -2 -2 -2 -2 -2 -1 -1 -1 -0 -0 -0 -0 -0 -0 -0 -0 0 0 1 1 1 0 0 -0 -0 -1 -1 -1 -1 -1 -2 -1 -1 -1 -1 -2 -1 -1 -0 -0 0 0 -0 0 0 -0 -0 -0
-1 -1 -1 -0 -0 0 0 0 0 0 0 1 1 0 -0 -0 -1 -1 -1 -1 -2 -2 -2 -2 -2 -2 -1 -1 -0 -0 -0 -0 -0 -0 -0 -0 0 0 1 1 1 1 0 -0 -1 -1 -1 -1 -2 -2 -2 -2 -2 -2 -1 -1 -1 -1 -1 -1 -0 -0 0 0 0 -0 -0 -0 -0
-1 -1 -1 -0 0 0 1 1 1 1 1 1 1 0 -0 -1 -1 -1 -1 -2 -2 -2 -2 -2 -2 -1 -1 -0 -0 -0 -0 -0 -0 -0 -0 0 0 1 1 1 1 0 -0 -0 -1 -1 -1 -1 -1 -2 -2 -2 -2 -2 -2 -1 -1 -1 -0 -0 -0 -0 -0 -0 0 -0 -0 -1 -0
-1 -1 -0 -0 0 1 1 2 2 2 1 1 0 -0 -0 -1 -1 -1 -1 -2 -2 -2 -2 -2 -2 -1 -1 -0 -0 -0 -0 -1 -0 -0 0 0 1 1 0 0 0 -0 -0 -1 -1 -1 -1 -1 -1 -1 -1 -1 -1 -1 -1 -1 -1 -1 -0 0 0 0 -0 -0 -0 -0 -0 -1 -1
-1 -1 -0 0 1 1 2 2 2 2 1 0 -0 -0 -1 -1 -1 -1 -1 -2 -2 -2 -2 -2 -1 -1 -1 -0 -0 -0 -0 -0 -0 -0 0 0 0 0 0 0 0 -0 -0 -1 -1 -1 -1 -1 -1 -1 -1 -1 -1 -1 -1 -1 -1 -1 -1 -0 -0 0 -0 -0 -0 -1 -1 -1 -1
-1 -0 0 1 1 1 1 1 1 1 0 -0 -1 -1 -1 -1 -1 -2 -2 -2 -2 -2 -2 -1 -1 -1 -1 -1 -1 -0 -0 -0 -0 -0 -0 -0 -0 -0 -0 -0 0 0 -0 -1 -1 -1 -1 -1 -1 -1 -1 -1 -1 -0 -0 -1 -1 -2 -2 -1 -0 -0 -0 -0 -0 -1 -1 -1 -1
0 1 1 1 2 2 2 1 1 0 -0 -1 -1 -1 -2 -2 -2 -2 -2 -1 -1 -1 -1 -1 -1 -1 -1 -1 -1 -1 -0 0 0 0 -0 -1 -1 -1 -0 -0 0 0 0 -0 -1 -1 -1 -1 -1 -1 -1 -1 -1 -1 -0 -0 -1 -1 -2 -2 -1 -0 -0 -0 -0 -1 -1 -2 -1
1 1 1 2 2 2 2 1 1 0 -0 -1 -1 -2 -2 -2 -2 -2 -2 -1 -1 -1 -1 -1 -1 -1 -1 -1 -1 -1 -0 -0 -0 -0 -1 -1 -1 -1 -1 -0 -0 0 0 0 -0 -1 -1 -1 -0 -0 -0 -1 -1 -1 -1 -1 -1 -1 -2 -2 -2 -1 -0 -0 -0 -0 -1 -2 -2
0 1 2 2 2 2 1 1 0 -0 -1 -1 -2 -2 -2 -2 -2 -2 -1 -1 -1 -0 -0 -1 -1 -1 -1 -1 -1 -1 -1 -0 -1 -1 -1 -1 -1 -1 -1 -1 -1 -0 0 0 -0 -0 -1 -1 -1 -0 -0 -0 -1 -1 -1 -1 -1 -1 -1 -1 -2 -2 -1 -0 -0 -0 -1 -1 -1
1 1 2 2 1 1 1 0 -0 -1 -1 -1 -2 -2 -2 -2 -2 -1 -1 -1 -0 -0 -0 -1 -1 -1 -1 -1 -1 -1 -1 -1 -1 -1 -2 -1 -1 -1 -1 -0 -1 -0 -0 -0 -0 -0 -0 -1 -1 -1 -0 -0 -0 -1 -1 -1 -1 -2 -1 -1 -1 -1 -1 -1 -0 -1 -1 -1 -1
2 2 2 2 1 1 1 0 -0 -1 -1 -1 -1 -1 -1 -1 -1 -1 -1 -0 -0 -0 -0 -1 -1 -1 -1 -1 -0 -0 -1 -1 -1 -2 -2 -1 -1 -1 -0 -0 -0 -0 -0 -0 -0 -0 -0 -0 -1 -1 -1 -1 -1 -1 -1 -1 -1 -2 -2 -1 -1 -1 -2 -1 -1 -0 -0 -1 -1
2 2 1 1 1 1 0 0 -0 -0 -0 -0 -0 -0 -1 -1 -1 -1 -1 -0 -0 -0 -0 -0 -0 -0 -0 -0 -0 -1 -1 -1 -2 -2 -1 -1 -1 -1 -0 -0 -0 0 0 0 0 0 0 -0 -1 -1 -2 -2 -1 -1 -1 -1 -2 -2 -2 -2 -1 -1 -1 -2 -1 -0 -0 0 -0
2 2 1 1 1 0 0 -0 -0 -0 -0 -0 -0 -0 -1 -1 -0 -0 -0 -0 -0 -0 -0 -0 -0 -0 -0 -1 -1 -1 -1 -1 -2 -2 -1 -1 -1 -1 -0 -0 0 0 0 0 0 0 0 -0 -0 -1 -2 -2 -2 -2 -1 -1 -1 -1 -2 -2 -2 -2 -1 -1 -1 -0 -0 -0 0
1 1 1 1 1 0 -0 -0 -0 -0 -1 -1 -0 -1 -1 -0 -0 -0 -0 -0 0 -0 -0 0 -0 -0 -0 -1 -1 -1 -1 -2 -2 -2 -1 -1 -1 -0 -0 -0 0 0 0 0 0 0 0 -0 -0 -1 -2 -2 -2 -2 -1 -1 -1 -1 -1 -1 -1 -1 -1 -1 -0 -0 -0 -1 -1
1 1 1 1 0 0 -0 -0 -0 -1 -1 -1 -1 -1 -1 -0 -0 -0 -0 0 0 0 0 0 0 0 0 -0 -1 -1 -2 -2 -2 -2 -2 -2 -1 -1 -0 -0 -0 -0 -0 -0 -0 0 0 0 -0 -1 -1 -2 -2 -2 -2 -1 -1 -1 -1 -0 -1 -1 -1 -0 -0 -0 -0 -0 -1
1 1 1 1 0 0 0 0 -0 -0 -1 -1 -1 -1 -1 -0 -0 -0 -0 -0 0 0 0 0 0 0 0 0 -1 -1 -2 -2 -2 -2 -2 -2 -1 -1 -1 -0 -0 -0 -0 -1 -1 -1 -1 -0 -0 -1 -1 -1 -2 -2 -2 -1 -1 -1 -1 -0 -0 0 -0 0 -0 -0 -0 0 -0
2 1 1 0 0 0 0 0 -0 -0 -1 -1 -1 -1 -1 -0 -0 -0 -0 -0 -0 0 0 1 0 0 -0 -0 -0 -1 -2 -2 -2 -2 -1 -1 -1 -1 -1 -0 -0 -0 -0 -0 -1 -1 -2 -2 -1 -1 -1 -1 -1 -1 -1 -1 -1 -1 -0 -0 0 0 0 0 0 0 -0 0 0
2 1 1 0 0 0 -0 -0 -0 -0 -0 -0 -0 -0 -0 -0 -0 -0 -0 0 0 0 0 0 0 0 -0 -1 -1 -1 -2 -2 -2 -2 -1 -1 -0 -0 -0 -0 -0 0 0 -0 -1 -1 -1 -2 -1 -1 -1 -1 -1 -1 -1 -1 -1 -1 -0 0 0 0 1 1 1 1 0 0 0
2 1 1 0 -0 -0 -0 -0 -0 -0 -0 -0 -0 -1 -0 -0 -0 -0 -0 -0 0 0 0 0 0 -0 -0 -1 -1 -1 -1 -2 -2 -2 -1 -1 -0 0 0 -0 -0 -0 0 -0 -0 -1 -1 -1 -1 -1 -1 -2 -2 -2 -2 -1 -1 -0 0 0 1 1 1 1 1 1 1 1 0
2 1 0 -0 -0 -0 -0 -0 -0 -0 -0 -0 -0 -1 -1 -0 -0 -0 -0 -0 0 0 0 -0 -0 -1 -1 -1 -2 -2 -1 -1 -1 -1 -1 -0 0 0 0 0 -0 -0 -0 -0 -0 -1 -1 -1 -1 -2 -2 -2 -3 -2 -2 -1 -1 -0 0 1 1 1 1 1 1 1 1 1 0
1 1 0 -0 -0 -0 -0 -0 -0 0 0 -0 -0 -1 -1 -0 -0 -0 -0 0 0 0 -0 -0 -1 -1 -2 -2 -2 -2 -2 -2 -1 -1 -0 -0 1 1 1 0 0 -0 -0 -0 -1 -1 -1 -1 -2 -2 -3 -3 -2 -1 -1 -1 -0 -0 -0 0 1 1 1 2 2 1 1 0 -0
1 0 -0 -0 -0 -0 -0 0 0 0 0 -0 -0 -0 -0 -0 -0 -0 0 0 0 0 -0 -0 -1 -1 -2 -2 -3 -3 -3 -2 -1 -0 0 1 1 1 1 1 0 -0 -0 -1 -2 -2 -3 -3 -3 -2 -2 -2 -1 -0 0 0 0 -0 -1 -0 -0 0 1 1 1 1 2 2 1
0 0 -0 -0 -0 0 0 0 0 0 0 -0 -0 -0 0 0 0 0 0 0 0 0 -0 -0 -1 -1 -2 -2 -2 -3 -3 -3 -2 -1 0 1 1 1 1 1 0 -0 -1 -1 -1 -2 -2 -3 -3 -3 -1 -0 -0 -0 0 0 0 -0 -0 -1 -1 -0 0 0 0 0 1 2 2
0 -0 -0 0 0 0 0 0 0 0 -0 -0 -0 0 0 0 0 0 1 1 0 -0 -0 -0 -1 -1 -2 -2 -2 -2 -2 -2 -2 -1 -1 -0 1 1 0 0 -0 -0 -1 -2 -2 -1 -1 -0 -1 -1 -1 -0 -0 0 0 0 -0 -0 -0 -0 -1 -1 -1 -0 0 0 0 -0 0
-0 -0 0 0 0 0 0 1 0 -0 -0 -0 0 1 1 1 1 1 1 0 0 -0 -0 -1 -1 -2 -2 -3 -2 -1 -0 -0 -0 -1 -1 -1 -1 -0 -0 -0 -1 -1 -2 -2 -2 -2 -1 0 1 1 1 0 -0 -0 -1 -0 -0 -0 -0 0 -0 -1 -2 -2 -0 1 1 0 -1
-0 -0 0 0 0 0 1 0 0 -0 -0 0 1 1 1 1 1 1 0 0 -0 -0 -1 -1 -2 -2 -3 -3 -2 -1 -0 1 0 0 -0 -1 -1 -1 -1 -1 -1 -2 -2 -2 -2 -2 -1 -0 0 1 2 1 0 -0 -1 -1 -1 -0 -0 -0 0 0 -0 -1 -1 -1 -0 -0 -0
-0 0 0 0 1 1 0 0 -0 -0 -0 0 1 1 1 1 1 0 -0 -0 -0 -1 -1 -1 -2 -3 -3 -2 -1 -0 0 1 0 0 0 -0 -0 -0 -1 -1 -1 -2 -2 -2 -2 -2 -1 -0 0 1 2 2 0 -0 -1 -1 -1 -1 -1 -1 -0 0 0 0 -0 -1 -2 -2 -1
0 0 0 0 1 0 0 -0 -0 -0 0 1 1 1 1 1 0 -0 -0 -1 -1 -1 -2 -2 -2 -3 -2 -2 -1 0 1 1 1 0 -0 -0 -0 -0 -1 -1 -1 -2 -2 -2 -2 -1 -1 -0 0 1 1 2 1 -0 -1 -1 -1 -1 -1 -1 -1 -1 -0 -0 -0 -0 -1 -2 -2
0 0 1 1 0 0 -0 -0 -0 0 0 1 1 1 1 0 -0 -0 -1 -1 -1 -2 -3 -3 -3 -2 -2 -1 -0 0 1 1 1 0 -0 -1 -1 -1 -1 -1 -2 -2 -2 -2 -1 -1 -0 -0 0 0 0 1 0 -0 -1 -1 -1 -1 -1 -1 -1 -1 -1 -0 -0 0 0 0 -0
0 1 1 0 0 -0 -0 -0 -0 0 1 1 1 1 1 0 -0 -1 -1 -1 -1 -2 -2 -3 -2 -1 -1 0 0 1 1 1 1 0 -1 -1 -2 -2 -2 -2 -2 -2 -2 -2 -1 -1 -0 -0 -0 -0 -0 -0 -0 -0 -1 -1 -1 -1 -1 -2 -2 -1 0 1 1 1 1 1 -2
0 0 0 -0 -0 -0 -0 -0 0 1 1 1 1 1 0 -0 -1 -1 -1 -2 -2 -2 -2 -2 -2 -1 -0 0 1 1 1 0 0 -0 -1 -2 -2 -2 -2 -2 -2 -2 -2 -2 -1 -1 -0 -0 -1 -1 -1 -1 -1 -1 -1 -1 -2 -2 -2 -1 -0 1 2 3 3 2 1 -0 -4
1 1 0 -0 -0 -0 0 0 1 1 1 0 0 0 0 -0 -0 -1 -1 -2 -2 -2 -2 -2 -2 -1 -1 -1 -0 -0 0 -0 -0 -1 -1 -2 -3 -3 -2 -2 -2 -2 -2 -1 -1 -1 -1 -1 -1 -1 -1 -1 -1 -2 -2 -2 -2 -2 -1 1 2 3 3 3 3 1 -1 -4 -7
1 1 0 -0 0 0 1 1 1 1 0 0 0 0 -0 -0 -0 -1 -1 -2 -2 -2 -2 -1 -1 -1 -1 -1 -1 -1 -1 -1 -1 -1 -2 -2 -2 -3 -2 -1 -1 -1 -2 -1 -1 -1 -1 -1 -2 -2 -2 -2 -2 -2 -2 -2 -2 -1 0 2 3 3 2 2 1 -2 -5 -9 -8
1 0 0 0 0 1 1 1 1 1 1 0 0 0 -0 -0 -1 -1 -2 -2 -2 -1 -1 -0 -0 -0 -0 0 -0 -1 -1 -1 -2 -2 -2 -2 -2 -2 -2 -2 -1 -0 -1 -1 -1 -1 -1 -2 -2 -2 -2 -2 -3 -3 -2 -2 -1 0 2 3 2 2 0 -0 -2 -5 -8 -11 -8
0 0 0 0 0 1 1 1 1 1 1 0 0 0 0 -0 -1 -2 -2 -2 -2 -1 -0 0 0 -0 -0 -0 -0 -0 -1 -2 -2 -2 -2 -2 -2 -2 -2 -2 -1 -0 -0 -1 -1 -2 -2 -2 -3 -3 -3 -2 -3 -3 -2 -2 -1 -0 1 2 1 -0 -2 -4 -5 -7 -8 -8 -6
-0 -0 0 0 1 1 1 1 1 1 0 0 0 0 -0 -0 -1 -2 -2 -3 -2 -2 -1 -0 -0 -0 -1 -1 -1 -1 -1 -1 -2 -2 -2 -2 -2 -2 -2 -2 -1 -1 -1 -1 -1 -2 -3 -3 -3 -3 -3 -3 -2 -2 -2 -2 -1 -1 -1 -0 -1 -2 -4 -7 -8 -7 -6 -5 -4
-0 0 0 1 1 1 1 1 1 1 0 0 -0 -0 -1 -1 -1 -2 -2 -3 -3 -2 -2 -1 -1 -1 -1 -2 -2 -1 -1 -0 -1 -2 -2 -1 -1 -2 -2 -1 -1 -1 -1 -1 -2 -3 -3 -3 -3 -3 -2 -3 -2 -2 -2 -2 -2 -2 -2 -3 -4 -4 -6 -8 -9 -8 -5 -3 -1
0 0 0 1 1 1 1 1 1 0 0 -0 -0 -1 -1 -2 -2 -2 -2 -2 -2 -2 -2 -2 -1 -1 -2 -2 -3 -2 -1 -0 -0 -1 -1 -1 -0 -0 -1 -1 -1 -1 -1 -1 -2 -3 -4 -4 -3 -2 -1 -2 -2 -2 -2 -2 -2 -2 -3 -5 -7 -7 -6 -6 -8 -7 -5 -1 0
0 0 1 1 1 1 1 1 0 0 -0 -1 -1 -1 -2 -2 -2 -2 -1 -1 -2 -2 -2 -2 -1 -1 -1 -2 -3 -3 -2 -0 0 0 0 -0 0 0 0 -0 -0 -1 -2 -2 -2 -3 -3 -4 -3 -2 -1 -1 -1 -2 -2 -3 -2 -2 -4 -6 -8 -8 -7 -5 -4 -3 -2 -1 -2
1 1 1 1 1 1 1 0 0 -0 -1 -1 -2 -2 -2 -2 -2 -1 -1 -1 -1 -1 -1 -1 -1 -1 -1 -1 -2 -2 -2 -1 0 1 1 1 1 1 0 -0 -0 -1 -2 -3 -3 -3 -3 -3 -3 -2 -1 0 -0 -1 -2 -4 -3 -4 -4 -6 -7 -7 -6 -4 0 3 4 -0 -5
Height
1487 1487 1488 1488 1489 1489 1490 1490 1490 1490 1491 1491 1491 1491 1491 1491 1491 1490 1490 1490 1490 1489 1489 1488 1488 1487 1486 1486 1485 1484 1483 1483 1482 1481 1481 1480 1479 1478 1477 1477 1476 1475 1475 1474 1473 1472 1472 1471 1470 1469 1468 1467 1466 1465 1463 1462 1461 1460 1459 1458 1457 1455 1454 1452 1452 1450 1449 1448 1447
1486 1487 1487 1488 1488 1489 1489 1489 1490 1490 1490 1490 1490 1490 1490 1490 1490 1490 1490 1490 1489 1489 1488 1488 1487 1487 1486 1485 1484 1483 1483 1482 1481 1481 1480 1479 1478 1477 1477 1476 1475 1475 1474 1473 1472 1472 1471 1470 1469 1467 1467 1465 1464 1463 1462 1461 1460 1458 1457 1456 1455 1454 1452 1451 1450 1449 1447 1446 1445
1486 1487 1487 1487 1488 1488 1489 1489 1489 1489 1490 1490 1490 1490 1490 1490 1490 1490 1489 1489 1489 1488 1487 1487 1486 1486 1485 1484 1483 1483 1482 1481 1481 1480 1479 1478 1477 1477 1476 1475 1475 1474 1473 1472 1472 1471 1470 1469 1467 1467 1465 1464 1463 1462 1461 1459 1458 1457 1456 1455 1453 1452 1451 1450 1448 1447 1446 1445 1443
1485 1486 1487 1487 1487 1488 1488 1489 1489 1489 1489 1489 1489 1489 1489 1489 1489 1489 1489 1488 1488 1487 1487 1486 1486 1485 1484 1483 1483 1482 1481 1480 1480 1479 1478 1477 1477 1476 1475 1475 1474 1473 1472 1472 1471 1470 1468 1467 1466 1465 1464 1463 1462 1460 1459 1458 1457 1456 1454 1453 1452 1451 1449 1448 1447 1446 1444 1443 1442
1485 1486 1486 1487 1487 1487 1488 1488 1488 1488 1489 1489 1489 1489 1489 1489 1489 1488 1488 1487 1487 1487 1486 1486 1485 1484 1483 1483 1482 1481 1480 1480 1479 1478 1477 1477 1476 1475 1475 1474 1473 1472 1472 1471 1470 1468 1467 1466 1465 1464 1463 1462 1460 1459 1458 1457 1455 1454 1453 1452 1451 1449 1448 1447 1446 1444 1443 1442 1440
1484 1485 1486 1486 1487 1487 1487 1488 1488 1488 1488 1488 1488 1488 1488 1488 1488 1487 1487 1487 1486 1486 1485 1485 1484 1483 1483 1482 1481 1480 1480 1479 1478 1477 1477 1476 1475 1475 1474 1473 1472 1472 1471 1469 1468 1467 1466 1465 1464 1463 1462 1460 1459 1458 1456 1455 1454 1452 1451 1450 1449 1448 1447 1445 1444 1443 1441 1440 1439
1484 1484 1485 1486 1486 1486 1487 1487 1487 1487 1487 1487 1487 1487 1487 1487 1487 1487 1487 1486 1486 1485 1485 1484 1483 1482 1482 1481 1480 1479 1479 1478 1477 1477 1476 1475 1475 1474 1473 1472 1472 1471 1469 1468 1467 1466 1465 1464 1462 1461 1460 1459 1457 1456 1455 1454 1452 1451 1450 1448 1447 1447 1445 1444 1442 1441 1440 1438 1437
1483 1484 1484 1485 1485 1486 1486 1486 1486 1487 1487 1487 1487 1487 1487 1486 1486 1486 1486 1485 1485 1484 1484 1483 1482 1482 1481 1480 1479 1479 1478 1477 1477 1476 1475 1474 1474 1473 1472 1472 1471 1470 1468 1467 1466 1465 1464 1462 1461 1460 1458 1457 1456 1455 1453 1452 1451 1449 1448 1447 1446 1445 1444 1442 1441 1439 1438 1437 1435
1482 1483 1484 1484 1485 1485 1485 1486 1486 1486 1486 1486 1486 1486 1486 1486 1485 1485 1485 1484 1484 1483 1483 1482 1482 1481 1480 1479 1478 1478 1477 1477 1476 1475 1474 1474 1473 1472 1471 1470 1469 1468 1467 1466 1465 1463 1462 1461 1460 1458 1457 1456 1454 1453 1452 1451 1449 1448 1447 1445 1444 1443 1442 1441 1439 1438 1437 1435 1434
1482 1482 1483 1484 1484 1484 1485 1485 1485 1485 1485 1485 1485 1485 1485 1485 1484 1484 1484 1483 1483 1482 1482 1481 1481 1480 1479 1478 1477 1477 1476 1476 1475 1474 1473 1473 1472 1471 1470 1469 1468 1467 1466 1465 1463 1462 1461 1459 1458 1457 1456 1454 1453 1452 1450 1449 1448 1446 1445 1444 1442 1441 1440 1439 1437 1436 1435 1433 1432
1481 1482 1482 1483 1483 1484 1484 1484 1484 1484 1484 1484 1484 1484 1484 1484 1483 1483 1483 1483 1482 1482 1481 1480 1480 1479 1478 1477 1477 1476 1475 1475 1474 1473 1472 1472 1471 1470 1469 1468 1467 1466 1464 1463 1462 1461 1459 1458 1456 1455 1454 1453 1452 1450 1449 1447 1446 1445 1443 1442 1441 1439 1438 1437 1436 1434 1433 1432 1430
1481 1482 1482 1482 1483 1483 1483 1483 1484 1484 1484 1484 1484 1483 1483 1483 1483 1482 1482 1482 1481 1481 1480 1479 1479 1478 1477 1477 1476 1475 1474 1474 1473 1472 1472 1471 1470 1469 1468 1467 1465 1464 1463 1462 1460 1459 1457 1456 1455 1453 1452 1451 1450 1448 1447 1446 1444 1443 1442 1440 1439 1437 1436 1435 1434 1432 1431 1430 1428
1480 1481 1481 1482 1482 1482 1482 1483 1483 1483 1483 1483 1483 1483 1482 1482 1482 1482 1481 1481 1480 1480 1479 1478 1477 1477 1476 1476 1475 1474 1473 1473 1472 1471 1471 1470 1469 1467 1467 1465 1464 1463 1462 1460 1459 1457 1456 1455 1453 1452 1450 1449 1448 1447 1446 1444 1443 1441 1440 1438 1437 1436 1434 1433 1432 1431 1429 1428 1427
1480 1480 1481 1481 1481 1482 1482 1482 1482 1482 1483 1482 1482 1482 1482 1482 1481 1481 1481 1480 1479 1479 1478 1477 1477 1476 1475 1475 1474 1473 1472 1472 1471 1470 1470 1468 1467 1466 1465 1464 1462 1461 1460 1459 1457 1456 1455 1453 1452 1450 1449 1447 1446 1445 1444 1443 1441 1440 1438 1437 1435 1434 1432 1431 1430 1429 1428 1426 1425
1479 1480 1480 1480 1481 1481 1481 1482 1482 1482 1482 1482 1482 1482 1481 1481 1481 1480 1480 1479 1478 1478 1477 1476 1476 1475 1474 1474 1473 1472 1472 1471 1470 1469 1468 1467 1466 1465 1464 1462 1461 1460 1458 1457 1456 1454 1453 1452 1450 1449 1447 1446 1445 1443 1442 1441 1440 1438 1437 1435 1434 1432 1431 1430 1428 1427 1426 1425 1423
1478 1479 1479 1480 1480 1481 1481 1481 1481 1481 1481 1481 1481 1481 1480 1480 1479 1479 1479 1478 1477 1477 1476 1476 1475 1474 1473 1473 1472 1472 1471 1470 1469 1468 1467 1466 1465 1463 1462 1461 1459 1458 1457 1455 1454 1453 1452 1450 1449 1447 1446 1444 1443 1442 1441 1439 1438 1437 1435 1434 1432 1431 1430 1428 1427 1426 1425 1423 1422
1478 1478 1479 1479 1480 1480 1480 1480 1480 1480 1480 1480 1480 1479 1479 1479 1478 1478 1477 1477 1477 1476 1475 1475 1474 1473 1472 1472 1471 1471 1470 1469 1468 1467 1466 1465 1463 1462 1461 1459 1458 1457 1455 1454 1452 1451 1450 1448 1447 1446 1444 1443 1442 1440 1439 1437 1436 1435 1433 1432 1431 1430 1428 1427 1426 1424 1423 1422 1421
1477 1478 1478 1479 1479 1479 1480 1480 1479 1479 1479 1479 1479 1478 1478 1478 1477 1477 1477 1476 1476 1475 1474 1474 1473 1472 1472 1471 1470 1470 1469 1468 1467 1466 1465 1463 1462 1460 1459 1457 1456 1455 1453 1452 1451 1449 1448 1447 1446 1444 1443 1442 1440 1439 1437 1436 1434 1433 1432 1430 1429 1428 1427 1425 1424 1423 1422 1420 1419
1477 1477 1478 1478 1479 1479 1479 1479 1479 1479 1478 1478 1478 1477 1477 1477 1477 1476 1476 1475 1475 1474 1473 1473 1472 1472 1471 1470 1469 1469 1468 1467 1466 1464 1463 1462 1460 1459 1457 1456 1455 1453 1452 1451 1449 1448 1447 1445 1444 1442 1441 1440 1438 1437 1435 1434 1432 1431 1430 1429 1427 1426 1425 1424 1423 1422 1420 1419 1417
1477 1477 1477 1477 1478 1478 1478 1478 1478 1478 1477 1477 1477 1477 1476 1476 1476 1475 1475 1474 1473 1473 1472 1472 1471 1471 1470 1469 1468 1467 1467 1466 1464 1463 1462 1460 1459 1457 1456 1454 1453 1452 1451 1449 1448 1446 1445 1443 1442 1441 1439 1438 1436 1435 1433 1432 1431 1429 1428 1427 1426 1425 1423 1422 1421 1420 1419 1417 1416
1476 1476 1477 1477 1477 1477 1477 1477 1477 1477 1477 1477 1476 1476 1475 1475 1475 1474 1473 1473 1472 1472 1471 1471 1470 1469 1469 1468 1467 1466 1465 1464 1463 1462 1460 1459 1457 1456 1455 1453 1452 1450 1449 1448 1446 1445 1443 1442 1440 1439 1437 1436 1434 1433 1432 1430 1429 1428 1427 1425 1424 1423 1422 1421 1420 1418 1417 1416 1415
1475 1476 1476 1476 1477 1477 1477 1477 1476 1476 1476 1476 1475 1475 1474 1474 1473 1473 1472 1472 1472 1471 1470 1470 1469 1468 1467 1467 1466 1465 1464 1463 1462 1460 1459 1457 1456 1455 1453 1452 1450 1449 1447 1446 1445 1443 1442 1440 1438 1437 1435 1434 1432 1431 1430 1429 1427 1426 1425 1423 1422 1422 1420 1419 1418 1417 1416 1414 1413
1475 1475 1475 1476 1476 1476 1476 1476 1476 1475 1475 1475 1474 1474 1473 1473 1472 1472 1472 1471 1471 1470 1469 1469 1468 1467 1467 1466 1465 1464 1462 1461 1460 1459 1457 1456 1455 1453 1452 1451 1449 1447 1446 1444 1443 1441 1440 1438 1436 1435 1434 1432 1431 1430 1428 1427 1426 1424 1423 1422 1421 1420 1418 1417 1416 1415 1414 1413 1412
1474 1475 1475 1475 1475 1475 1475 1475 1475 1474 1474 1474 1473 1473 1472 1472 1472 1471 1471 1470 1470 1469 1468 1468 1467 1466 1466 1465 1463 1462 1461 1460 1458 1457 1456 1455 1453 1452 1451 1449 1448 1446 1445 1443 1442 1440 1438 1437 1435 1433 1432 1431 1429 1428 1427 1426 1424 1423 1421 1420 1419 1417 1417 1416 1415 1413 1412 1411 1410
1474 1474 1474 1474 1474 1474 1474 1474 1474 1473 1473 1472 1472 1472 1472 1471 1471 1470 1470 1469 1469 1468 1467 1467 1466 1465 1464 1463 1462 1461 1460 1458 1457 1456 1454 1453 1452 1451 1449 1448 1446 1445 1443 1442 1440 1439 1437 1436 1434 1432 1431 1429 1428 1426 1425 1424 1422 1421 1420 1418 1417 1416 1415 1413 1412 1412 1411 1409 1408
1473 1473 1474 1474 1474 1474 1473 1473 1473 1472 1472 1472 1471 1471 1471 1470 1470 1469 1469 1468 1468 1467 1467 1466 1465 1464 1463 1462 1461 1460 1458 1457 1456 1454 1453 1452 1450 1449 1448 1446 1445 1443 1442 1440 1439 1437 1436 1434 1433 1432 1430 1428 1426 1425 1423 1422 1421 1420 1418 1417 1416 1415 1413 1412 1411 1409 1408 1407 1406
1473 1473 1473 1473 1473 1473 1472 1472 1472 1471 1471 1471 1470 1470 1470 1469 1469 1468 1468 1467 1467 1466 1466 1465 1464 1463 1462 1461 1460 1458 1457 1456 1454 1453 1452 1450 1449 1447 1446 1445 1443 1442 1440 1438 1437 1436 1434 1433 1432 1430 1428 1427 1425 1423 1422 1420 1419 1418 1417 1415 1414 1413 1412 1410 1409 1408 1406 1405 1404
1472 1472 1472 1472 1472 1472 1472 1471 1471 1470 1470 1470 1470 1469 1469 1468 1468 1467 1467 1467 1466 1465 1465 1464 1463 1462 1461 1460 1458 1457 1456 1454 1453 1452 1450 1449 1447 1446 1445 1443 1442 1440 1438 1437 1436 1434 1433 1431 1430 1428 1427 1425 1424 1422 1420 1419 1417 1416 1415 1414 1413 1412 1410 1409 1407 1406 1405 1403 1402
1472 1472 1472 1471 1471 1471 1470 1470 1470 1470 1469 1469 1468 1468 1468 1467 1467 1467 1466 1466 1465 1464 1463 1463 1462 1461 1460 1458 1457 1456 1455 1453 1452 1450 1449 1447 1446 1445 1443 1442 1440 1438 1437 1436 1434 1432 1431 1430 1428 1427 1425 1424 1422 1421 1419 1417 1416 1415 1413 1412 1411 1410 1409 1407 1406 1405 1403 1402 1400
1471 1471 1471 1470 1470 1470 1469 1469 1469 1469 1468 1468 1468 1467 1467 1467 1466 1466 1465 1465 1464 1463 1462 1462 1461 1460 1458 1457 1456 1455 1453 1452 1451 1449 1447 1446 1444 1443 1442 1440 1438 1437 1436 1434 1432 1431 1429 1428 1427 1425 1424 1422 1421 1419 1417 1416 1415 1413 1412 1411 1410 1409 1407 1406 1405 1403 1402 1400 1399
1470 1470 1470 1469 1469 1469 1468 1468 1468 1468 1467 1467 1467 1467 1466 1466 1465 1465 1464 1464 1463 1462 1462 1461 1459 1458 1457 1456 1455 1453 1452 1451 1449 1447 1446 1444 1443 1442 1440 1439 1437 1436 1434 1432 1431 1429 1428 1427 1425 1423 1422 1421 1419 1418 1416 1415 1413 1412 1411 1410 1408 1407 1406 1405 1403 1402 1400 1399 1397
1469 1469 1469 1468 1468 1468 1468 1467 1467 1467 1467 1466 1466 1466 1465 1465 1464 1464 1463 1463 1462 1461 1460 1459 1458 1457 1456 1455 1453 1452 1451 1449 1448 1446 1445 1443 1442 1440 1439 1437 1436 1434 1432 1431 1429 1428 1427 1425 1423 1422 1421 1419 1418 1416 1415 1413 1412 1411 1410 1409 1407 1406 1405 1403 1402 1400 1399 1397 1396
1468 1468 1468 1467 1467 1467 1467 1467 1467 1466 1466 1466 1465 1465 1465 1464 1463 1463 1462 1462 1461 1460 1459 1458 1457 1456 1455 1453 1452 1451 1449 1448 1446 1445 1443 1442 1440 1439 1437 1436 1434 1433 1431 1429 1428 1427 1425 1423 1422 1420 1419 1418 1416 1415 1413 1412 1411 1410 1408 1407 1406 1405 1403 1402 1401 1399 1397 1396 1395
1467 1467 1467 1467 1467 1466 1466 1466 1466 1465 1465 1465 1464 1464 1464 1463 1463 1462 1462 1461 1460 1459 1458 1457 1456 1454 1453 1452 1451 1449 1448 1447 1445 1443 1442 1440 1439 1437 1436 1434 1433 1431 1430 1428 1427 1425 1423 1422 1420 1419 1417 1416 1414 1413 1412 1411 1409 1408 1407 1406 1405 1403 1402 1401 1399 1398 1396 1395 1393
1466 1466 1466 1466 1466 1466 1465 1465 1465 1465 1464 1464 1464 1463 1463 1462 1462 1461 1461 1460 1459 1458 1457 1456 1455 1453 1452 1451 1449 1448 1447 1445 1443 1442 1441 1439 1437 1436 1435 1433 1432 1430 1428 1427 1425 1424 1422 1421 1419 1417 1416 1415 1413 1412 1410 1409 1408 1407 1406 1404 1403 1402 1400 1399 1397 1396 1395 1393 1392
1465 1465 1465 1465 1465 1465 1464 1464 1464 1464 1464 1463 1463 1462 1462 1462 1461 1460 1460 1459 1458 1457 1456 1455 1453 1452 1451 1450 1448 1447 1445 1444 1442 1441 1439 1438 1436 1435 1433 1432 1430 1429 1427 1426 1424 1422 1421 1419 1417 1416 1415 1413 1411 1410 1409 1407 1407 1405 1404 1403 1401 1400 1398 1397 1396 1394 1393 1392 1390
1465 1465 1464 1464 1464 1464 1464 1464 1463 1463 1463 1462 1462 1462 1461 1461 1460 1459 1458 1458 1457 1456 1455 1454 1452 1451 1450 1448 1447 1446 1444 1443 1441 1439 1438 1437 1435 1433 1432 1430 1429 1427 1426 1424 1422 1421 1419 1418 1416 1415 1413 1412 1410 1408 1407 1406 1405 1403 1402 1401 1400 1398 1397 1396 1394 1392 1391 1390 1389
1464 1464 1463 1463 1463 1463 1463 1463 1462 1462 1462 1462 1461 1461 1460 1460 1459 1458 1457 1457 1455 1454 1453 1452 1451 1450 1448 1447 1446 1445 1443 1442 1440 1438 1437 1435 1434 1432 1430 1429 1427 1426 1424 1423 1421 1419 1418 1417 1415 1414 1412 1411 1409 1407 1406 1404 1403 1402 1401 1399 1398 1397 1395 1394 1392 1391 1389 1388 1387
1463 1463 1463 1462 1462 1462 1462 1462 1462 1462 1461 1461 1461 1460 1460 1459 1458 1457 1456 1455 1454 1453 1452 1451 1450 1448 1447 1446 1444 1443 1442 1441 1439 1437 1436 1434 1432 1431 1429 1427 1426 1424 1423 1422 1420 1418 1417 1415 1414 1413 1411 1410 1408 1406 1405 1403 1402 1401 1399 1398 1396 1395 1393 1392 1391 1389 1387 1386 1385
1462 1462 1462 1462 1462 1462 1462 1461 1461 1461 1461 1460 1460 1459 1459 1458 1457 1456 1455 1454 1453 1452 1451 1450 1448 1447 1446 1444 1443 1442 1441 1439 1438 1437 1435 1433 1432 1430 1428 1427 1425 1423 1422 1420 1418 1417 1415 1414 1413 1412 1410 1409 1407 1405 1404 1402 1401 1399 1398 1397 1395 1393 1391 1390 1389 1387 1386 1384 1383
1461 1461 1461 1461 1461 1461 1461 1461 1460 1460 1460 1459 1459 1458 1457 1457 1456 1455 1454 1453 1452 1451 1450 1448 1447 1446 1445 1443 1442 1441 1439 1438 1437 1435 1434 1432 1430 1429 1427 1425 1423 1422 1420 1418 1417 1416 1414 1413 1412 1411 1409 1408 1406 1405 1403 1402 1400 1398 1397 1395 1394 1392 1390 1388 1387 1386 1385 1383 1382